GW3095 Weather Reports


time (UTC)temp
F
wind
direction
speed
knots
gust
knots
rain 1hr
in
rain 24hr
in
rain mn
in
humidity
%
barometer
mb
20260504050007 52 67 0.0 0.9 0.00 0.00 0.00 79 1015.6
20260504044005 52 67 0.0 0.9 0.00 0.00 0.00 78 1015.7
20260504043005 52 67 0.0 0.9 0.00 0.00 0.00 77 1015.8
20260504042005 52 67 0.0 0.9 0.00 0.00 0.00 75 1015.8
20260504041005 52 67 0.0 0.9 0.00 0.00 0.00 77 1015.9
20260504040005 52 67 0.0 0.9 0.00 0.00 0.00 76 1015.8
20260504035010 52 67 0.0 0.9 0.00 0.00 0.00 77 1015.9
20260504034005 52 67 0.0 0.9 0.00 0.00 0.00 76 1016.0
20260504033005 52 67 0.0 0.9 0.00 0.00 0.00 77 1016.0
20260504032005 53 67 0.0 0.9 0.00 0.00 0.00 76 1016.1
20260504031005 53 67 0.0 0.9 0.00 0.00 0.00 75 1016.3
20260504030005 53 67 0.0 0.9 0.00 0.00 0.00 75 1016.3
20260504025005 53 67 0.0 0.9 0.00 0.00 0.00 73 1016.2
20260504024005 54 67 0.0 0.9 0.00 0.00 0.00 73 1016.2
20260504023005 54 67 0.0 0.9 0.00 0.00 0.00 72 1016.0
20260504022005 54 67 0.0 0.9 0.00 0.00 0.00 74 1016.0
20260504021005 55 67 0.0 0.9 0.00 0.00 0.00 73 1015.6
20260504020005 55 67 0.0 0.9 0.00 0.00 0.00 71 1015.5
20260504014005 56 67 0.0 0.9 0.00 0.00 0.00 68 1015.5
20260504013005 56 67 0.0 0.9 0.00 0.00 0.00 67 1015.5
20260504012005 56 67 0.0 0.9 0.00 0.00 0.00 66 1015.5
20260504010005 58 67 0.0 0.9 0.00 0.00 0.00 65 1015.4
20260504005005 58 67 0.0 0.9 0.00 0.00 0.00 64 1015.4
20260504004005 59 67 0.0 0.9 0.00 0.00 0.00 64 1015.4
20260504003004 59 67 0.0 0.9 0.00 0.00 0.00 63 1015.4
20260504002005 60 67 0.0 0.9 0.00 0.00 0.00 62 1015.6
20260504001005 60 67 0.0 0.9 0.00 0.00 0.00 62 1015.8
20260504000005 61 67 0.0 0.9 0.00 0.00 0.00 62 1015.8
20260503235005 61 67 0.0 0.9 0.00 0.00 0.00 62 1015.9
20260503234004 62 67 0.0 0.9 0.00 0.00 0.00 62 1015.9
20260503233005 62 67 0.0 0.9 0.00 0.00 0.00 60 1015.6
20260503231006 63 67 0.0 0.9 0.00 0.00 0.00 54 1015.8
20260503230006 63 99 0.0 0.9 0.00 0.00 0.00 53 1015.9
20260503225005 63 99 0.0 0.9 0.00 0.00 0.00 52 1016.2
20260503224005 63 103 0.0 0.9 0.00 0.00 0.00 58 1016.5
20260503223010 63 103 0.9 0.9 0.00 0.00 0.00 53 1016.5
20260503222005 64 101 0.0 0.9 0.00 0.00 0.00 50 1016.6
20260503221005 64 101 0.0 0.9 0.00 0.00 0.00 48 1016.6
20260503220005 64 112 0.9 0.9 0.00 0.00 0.00 48 1016.7
20260503214005 65 28 0.0 0.9 0.00 0.00 0.00 52 1016.9
20260503213005 66 28 0.9 0.9 0.00 0.00 0.00 49 1017.0
20260503212005 66 98 0.9 0.9 0.00 0.00 0.00 43 1017.0
20260503211005 66 28 0.9 0.9 0.00 0.00 0.00 49 1017.2
20260503210006 66 51 0.0 0.9 0.00 0.00 0.00 43 1017.3
20260503205005 66 5 0.0 0.9 0.00 0.00 0.00 49 1017.6
20260503203005 66 355 0.9 0.9 0.00 0.00 0.00 44 1017.8
20260503202005 66 65 0.0 0.9 0.00 0.00 0.00 44 1018.0
20260503201005 66 46 0.0 0.9 0.00 0.00 0.00 46 1018.3
20260503200010 66 355 1.7 0.9 0.00 0.00 0.00 43 1018.4
20260503195005 66 40 0.0 0.9 0.00 0.00 0.00 46 1018.6
20260503193005 66 83 0.9 0.9 0.00 0.00 0.00 43 1018.9
20260503191005 66 63 0.9 0.9 0.00 0.00 0.00 44 1019.3
20260503190006 66 103 3.5 0.9 0.00 0.00 0.00 41 1019.5
20260503185005 66 360 0.9 0.9 0.00 0.00 0.00 43 1019.6
20260503184005 66 103 0.9 0.9 0.00 0.00 0.00 42 1019.8
20260503181005 66 10 0.9 0.9 0.00 0.00 0.00 42 1020.1
20260503180006 65 95 0.9 0.9 0.00 0.00 0.00 44 1020.1
20260503175010 66 109 0.0 0.9 0.00 0.00 0.00 41 1020.3
20260503174005 66 103 0.9 0.9 0.00 0.00 0.00 42 1020.5
20260503173005 64 44 0.0 0.9 0.00 0.00 0.00 42 1020.5
20260503172005 63 102 0.9 0.9 0.00 0.00 0.00 43 1020.7
20260503171005 63 88 1.7 0.9 0.00 0.00 0.00 42 1020.8
20260503081005 44 41 0.0 0.9 0.00 0.00 0.00 91 1019.8
20260503072005 45 41 0.0 0.9 0.00 0.00 0.00 91 1019.7